Retour au catalogue

SL-8 R/B

ActifLEO
NORAD 11699·ROCKET BODY·🇷🇺 Russia

Lancé Feb 11, 1980 depuis Plesetsk Cosmodrome

Loading…

Prochains Passages (prochaines 24 heures)

TLE

FraisSource: Space-Track

Époque: Sep 14, 2026, 23:23 UTC

1 11699U 80012J   26257.97467793 -.00000105  00000-0 -82170-3 0  9990
2 11699  74.0106 248.4163 0140949 116.7545 257.8148 12.22635714 79408

Suivez SL-8 R/B en temps réel avec AllMySat

Download on the App Store